FW0782 Weather Reports


Display with metric or nautical units.
time (UTC)temp
F
wind
direction
speed
MPH
gust
MPH
rain 1hr
in
rain 24hr
in
rain mn
in
humidity
%
barometer
mb
20191019121206 57 217 10.0 20.0 0.00 0.14 0.01 83 1002.5
20191019121003 57 209 10.0 19.0 0.00 0.14 0.01 83 1002.2
20191019120706 57 216 10.0 18.0 0.00 0.14 0.01 84 1002.5
20191019120205 57 220 9.0 14.0 0.00 0.14 0.01 84 1002.4
20191019120003 57 207 8.0 14.0 0.00 0.14 0.01 84 1002.0
20191019115705 57 215 6.0 16.0 0.00 0.14 0.01 84 1002.3
20191019115205 57 203 10.0 16.0 0.00 0.14 0.01 84 1002.4
20191019115003 57 202 9.0 16.0 0.00 0.14 0.01 84 1002.1
20191019114705 57 217 9.0 15.0 0.00 0.14 0.01 84 1002.4
20191019114205 57 229 7.0 13.0 0.00 0.14 0.01 84 1002.4
20191019114003 57 213 6.0 11.0 0.00 0.14 0.01 84 1002.1
20191019113705 57 225 9.0 14.0 0.00 0.14 0.01 83 1002.5
20191019113205 57 216 10.0 16.0 0.00 0.14 0.01 83 1002.5
20191019113003 57 206 10.0 16.0 0.00 0.14 0.01 83 1002.2
20191019112706 58 205 9.0 16.0 0.00 0.14 0.01 84 1002.5
20191019112205 57 217 9.0 14.0 0.00 0.14 0.01 84 1002.5
20191019112004 57 212 9.0 14.0 0.00 0.14 0.01 83 1002.2
20191019111704 57 218 10.0 16.0 0.00 0.14 0.01 83 1002.5
20191019111205 58 198 9.0 16.0 0.00 0.14 0.01 84 1002.6
20191019111003 58 201 9.0 15.0 0.00 0.14 0.01 84 1002.2
20191019110705 57 212 10.0 18.0 0.00 0.14 0.01 84 1002.6
20191019110205 57 214 8.0 20.0 0.00 0.14 0.01 84 1002.7
20191019110003 57 221 9.0 19.0 0.00 0.14 0.01 84 1002.3
20191019105706 57 200 8.0 20.0 0.00 0.14 0.01 84 1002.6
20191019105205 57 211 9.0 15.0 0.00 0.15 0.01 86 1002.7
20191019105003 57 213 8.0 13.0 0.00 0.14 0.01 86 1002.4
20191019104705 56 205 7.0 13.0 0.00 0.15 0.01 86 1002.8
20191019104205 56 214 7.0 14.0 0.00 0.15 0.01 87 1002.8
20191019104003 56 213 8.0 13.0 0.00 0.14 0.01 86 1002.5
20191019103706 56 205 7.0 18.0 0.00 0.15 0.01 86 1002.8
20191019103205 56 203 7.0 18.0 0.00 0.15 0.01 86 1002.8
20191019103004 56 208 8.0 13.0 0.00 0.14 0.01 86 1002.4
20191019102705 56 209 6.0 12.0 0.00 0.15 0.01 86 1002.7
20191019102205 56 210 8.0 14.0 0.00 0.15 0.01 86 1002.6
20191019102003 56 215 7.0 14.0 0.00 0.15 0.01 86 1002.2
20191019101705 56 215 10.0 15.0 0.00 0.15 0.01 87 1002.6
20191019101206 56 215 9.0 13.0 0.00 0.15 0.01 87 1002.6
20191019101004 56 206 8.0 13.0 0.00 0.15 0.01 87 1002.3
20191019100705 56 228 7.0 12.0 0.00 0.15 0.01 87 1002.6
20191019100205 56 219 8.0 14.0 0.00 0.15 0.01 87 1002.5
20191019100003 56 229 9.0 14.0 0.00 0.15 0.01 87 1002.2
20191019095718 56 188 5.0 15.0 0.00 0.15 0.01 88 1002.5
20191019095206 56 209 7.0 13.0 0.00 0.15 0.01 88 1002.5
20191019095003 56 224 7.0 13.0 0.00 0.15 0.01 88 1002.2
20191019094704 55 215 6.0 12.0 0.00 0.15 0.01 88 1002.5
20191019094206 55 209 8.0 12.0 0.00 0.15 0.01 89 1002.5
20191019094003 55 214 6.0 11.0 0.00 0.15 0.01 88 1002.2
20191019093705 55 220 6.0 12.0 0.00 0.15 0.01 89 1002.5
20191019093205 55 219 7.0 13.0 0.00 0.15 0.01 89 1002.5
20191019093004 55 214 7.0 12.0 0.00 0.15 0.01 88 1002.2
20191019092704 55 215 7.0 12.0 0.00 0.15 0.01 88 1002.4
20191019092206 55 224 7.0 13.0 0.00 0.15 0.01 88 1002.4
20191019092004 55 212 7.0 11.0 0.00 0.15 0.01 88 1002.0
20191019091708 55 217 7.0 13.0 0.00 0.15 0.01 88 1002.4
20191019091204 55 201 7.0 14.0 0.00 0.15 0.01 88 1002.4
20191019091003 55 214 7.0 14.0 0.00 0.15 0.01 88 1002.1
20191019090706 55 209 5.0 10.0 0.00 0.15 0.01 88 1002.4
20191019090205 55 205 9.0 14.0 0.00 0.15 0.01 88 1002.4
20191019090003 55 221 9.0 14.0 0.00 0.15 0.01 88 1002.2
20191019085704 56 227 7.0 14.0 0.00 0.15 0.01 87 1002.5
20191019085206 56 218 6.0 13.0 0.00 0.15 0.01 87 1002.5
20191019085003 56 214 6.0 13.0 0.00 0.15 0.01 88 1002.1
20191019084705 55 215 9.0 18.0 0.00 0.15 0.01 88 1002.3
20191019084205 55 211 9.0 15.0 0.00 0.15 0.01 88 1002.4
20191019084003 55 207 7.0 15.0 0.00 0.15 0.01 88 1002.1
20191019083705 56 195 9.0 16.0 0.00 0.15 0.01 88 1002.3
20191019083205 56 200 9.0 16.0 0.00 0.15 0.01 89 1002.3
20191019083004 56 209 8.0 16.0 0.00 0.15 0.01 89 1002.1
20191019082704 55 195 9.0 15.0 0.00 0.15 0.01 90 1002.5
20191019082206 55 212 9.0 16.0 0.00 0.15 0.01 90 1002.5
20191019082003 55 205 8.0 14.0 0.00 0.15 0.01 91 1002.2
20191019081706 55 219 8.0 13.0 0.00 0.15 0.01 91 1002.5
20191019081205 55 210 9.0 14.0 0.00 0.15 0.01 91 1002.5
20191019081004 55 198 8.0 14.0 0.00 0.15 0.01 91 1002.2
20191019080705 55 195 7.0 15.0 0.00 0.15 0.01 92 1002.5
20191019080217 55 209 6.0 15.0 0.00 0.15 0.01 92 1002.3
20191019080003 55 203 7.0 15.0 0.00 0.15 0.01 92 1001.9
20191019075705 54 197 6.0 13.0 0.00 0.15 0.01 92 1002.3
20191019075206 54 209 7.0 13.0 0.01 0.15 0.01 93 1002.3
20191019075004 54 207 7.0 11.0 0.01 0.15 0.01 93 1002.1
20191019074706 54 188 6.0 14.0 0.01 0.15 0.01 93 1002.4
20191019074205 54 213 6.0 12.0 0.01 0.15 0.01 93 1002.4
20191019074004 54 198 6.0 10.0 0.01 0.15 0.01 93 1002.1
20191019073706 54 209 7.0 15.0 0.01 0.15 0.01 93 1002.5
20191019073205 54 196 5.0 10.0 0.01 0.15 0.01 93 1002.4
20191019073004 54 219 5.0 10.0 0.01 0.15 0.01 93 1002.0
20191019072705 54 206 6.0 12.0 0.01 0.15 0.01 93 1002.3
20191019072205 54 192 6.0 12.0 0.01 0.15 0.01 93 1002.3
20191019072003 54 198 6.0 12.0 0.01 0.15 0.01 93 1002.0
20191019071706 54 206 6.0 12.0 0.01 0.15 0.01 92 1002.3
20191019071205 54 218 6.0 10.0 0.01 0.15 0.01 92 1002.3
20191019071003 54 203 7.0 10.0 0.01 0.15 0.01 92 1002.0
20191019070704 54 201 5.0 9.0 0.01 0.15 0.01 92 1002.3
20191019070205 53 217 6.0 12.0 0.01 0.15 0.01 92 1002.3
20191019070004 53 206 6.0 12.0 0.01 0.15 0.01 92 1002.0
20191019065704 53 193 6.0 9.0 0.01 0.15 0.01 92 1002.2
20191019065204 53 197 5.0 10.0 0.00 0.14 0.00 92 1002.1
20191019065004 53 201 6.0 10.0 0.00 0.14 0.00 92 1001.7
20191019064705 53 203 5.0 10.0 0.00 0.14 0.00 92 1002.0
20191019064205 53 184 6.0 10.0 0.00 0.14 0.00 92 1002.0
20191019064004 53 200 6.0 10.0 0.00 0.14 0.00 92 1001.7
20191019063705 53 216 6.0 13.0 0.00 0.14 0.00 92 1002.0
20191019063205 53 204 6.0 10.0 0.00 0.14 0.00 92 1002.0
20191019063003 53 207 6.0 10.0 0.00 0.14 0.00 92 1001.6
20191019062706 53 209 5.0 12.0 0.00 0.14 0.00 92 1002.0
20191019062204 53 203 5.0 10.0 0.00 0.14 0.00 92 1002.0
20191019062003 53 214 6.0 10.0 0.00 0.14 0.00 92 1001.7
20191019061706 53 204 6.0 10.0 0.00 0.14 0.00 92 1002.0
20191019061206 53 202 6.0 12.0 0.00 0.14 0.00 92 1001.9
20191019061004 53 203 6.0 11.0 0.00 0.14 0.00 92 1001.6
20191019060705 53 218 9.0 14.0 0.00 0.14 0.00 92 1001.8
20191019060206 54 174 10.0 22.0 0.00 0.14 0.00 92 1001.6
20191019060004 54 179 11.0 22.0 0.00 0.14 0.00 92 1001.3
20191019055706 54 180 9.0 20.0 0.00 0.14 0.00 92 1001.6
20191019055205 54 192 9.0 15.0 0.00 0.14 0.00 92 1001.7
20191019055003 54 194 8.0 13.0 0.00 0.14 0.00 92 1001.3
20191019054705 54 190 8.0 15.0 0.00 0.14 0.00 92 1001.6
20191019054212 54 187 10.0 18.0 0.00 0.14 0.00 92 1001.6
20191019054004 54 193 8.0 16.0 0.00 0.14 0.00 92 1001.4
20191019053705 54 190 9.0 15.0 0.00 0.14 0.00 92 1001.7
20191019053205 54 192 6.0 12.0 0.00 0.14 0.00 92 1001.7
20191019053004 54 209 6.0 11.0 0.00 0.14 0.00 92 1001.4
20191019052706 54 218 6.0 12.0 0.00 0.14 0.00 92 1001.8
20191019052204 54 209 5.0 13.0 0.00 0.14 0.00 91 1001.9
20191019052005 54 197 6.0 13.0 0.00 0.14 0.00 91 1001.5
20191019051705 54 205 6.0 10.0 0.00 0.14 0.00 91 1001.9
20191019051205 54 195 6.0 12.0 0.00 0.14 0.00 91 1002.0
20191019051003 54 210 7.0 12.0 0.00 0.14 0.00 91 1001.7
20191019050705 54 220 7.0 12.0 0.00 0.14 0.00 91 1002.1
20191019050204 54 210 7.0 12.0 0.00 0.14 0.00 91 1002.0
20191019050003 54 211 7.0 12.0 0.00 0.14 0.00 91 1001.8
20191019045705 54 226 6.0 12.0 0.00 0.14 0.00 91 1002.0
20191019045205 54 203 9.0 14.0 0.00 0.14 0.00 91 1002.0
20191019045003 54 193 9.0 14.0 0.00 0.14 0.00 91 1001.7
20191019044704 54 202 6.0 18.0 0.00 0.14 0.00 91 1002.0
20191019044206 54 200 9.0 14.0 0.00 0.14 0.00 91 1002.1
20191019044002 54 194 8.0 14.0 0.00 0.14 0.00 91 1001.7
20191019043705 54 184 9.0 16.0 0.00 0.14 0.00 91 1002.1
20191019043205 54 195 7.0 12.0 0.00 0.14 0.00 90 1002.1
20191019043003 54 208 6.0 12.0 0.00 0.14 0.00 90 1001.8
20191019042705 54 205 7.0 13.0 0.00 0.14 0.00 90 1002.2
20191019042205 54 191 9.0 14.0 0.00 0.14 0.00 90 1002.2
20191019042004 54 204 7.0 12.0 0.00 0.14 0.00 90 1001.9
20191019041704 54 202 6.0 13.0 0.00 0.14 0.00 90 1002.2
20191019041204 54 213 7.0 12.0 0.00 0.14 0.00 90 1002.3
20191019041003 54 209 7.0 11.0 0.00 0.14 0.00 90 1001.9
20191019040705 54 226 7.0 14.0 0.00 0.14 0.00 89 1002.2
20191019040206 54 197 7.0 12.0 0.00 0.14 0.00 89 1002.3
20191019040003 54 203 5.0 12.0 0.00 0.14 0.00 89 1001.9
20191019035705 54 214 7.0 12.0 0.00 0.14 0.00 89 1002.3
20191019035206 54 203 6.0 13.0 0.00 0.14 0.00 89 1002.3
20191019035004 54 201 8.0 13.0 0.00 0.14 0.00 89 1002.0
20191019034705 54 192 6.0 12.0 0.00 0.14 0.00 89 1002.3
20191019034205 54 204 7.0 12.0 0.00 0.14 0.00 89 1002.4
20191019034003 54 210 6.0 11.0 0.00 0.14 0.00 89 1002.0
20191019033705 54 213 6.0 14.0 0.00 0.14 0.00 89 1002.3
20191019033205 54 209 6.0 16.0 0.00 0.14 0.00 89 1002.3
20191019033003 54 203 6.0 10.0 0.00 0.14 0.00 89 1001.9
20191019032704 54 207 7.0 13.0 0.00 0.14 0.00 89 1002.3
20191019032206 54 202 7.0 13.0 0.00 0.14 0.00 89 1002.4
20191019032003 54 211 7.0 13.0 0.00 0.14 0.00 89 1002.1
20191019031705 54 212 7.0 14.0 0.00 0.14 0.00 89 1002.5
20191019031204 54 227 7.0 12.0 0.00 0.14 0.00 89 1002.5
20191019031003 54 209 6.0 10.0 0.00 0.14 0.00 89 1002.2
20191019030706 54 202 6.0 12.0 0.00 0.14 0.00 89 1002.5
20191019030206 54 208 7.0 15.0 0.00 0.14 0.00 89 1002.5
20191019030003 54 208 7.0 13.0 0.00 0.14 0.00 89 1002.2
20191019025704 54 230 7.0 13.0 0.00 0.14 0.00 88 1002.6
20191019025205 54 210 7.0 12.0 0.00 0.14 0.00 88 1002.7
20191019025002 54 213 6.0 11.0 0.00 0.14 0.00 88 1002.3
20191019024706 54 206 8.0 13.0 0.00 0.14 0.00 88 1002.6
20191019024204 54 211 7.0 15.0 0.00 0.14 0.00 88 1002.7
20191019024004 54 216 8.0 15.0 0.00 0.14 0.00 88 1002.4
20191019023705 54 225 6.0 10.0 0.00 0.14 0.00 88 1002.7
20191019023205 54 208 6.0 13.0 0.00 0.14 0.00 88 1002.7
20191019023003 54 206 5.0 9.0 0.00 0.14 0.00 88 1002.4
20191019022704 54 202 5.0 9.0 0.00 0.14 0.00 88 1002.8
20191019022205 54 196 5.0 12.0 0.00 0.14 0.00 87 1002.8
20191019022003 53 206 6.0 12.0 0.00 0.14 0.00 87 1002.5
20191019021706 53 216 5.0 12.0 0.00 0.14 0.00 87 1002.8
20191019021205 53 201 6.0 12.0 0.00 0.14 0.00 87 1002.8
20191019021003 53 204 7.0 11.0 0.00 0.14 0.00 87 1002.5
20191019020704 53 197 6.0 14.0 0.00 0.14 0.00 87 1002.8
20191019020206 53 220 7.0 13.0 0.00 0.14 0.00 87 1002.9
20191019020004 53 205 7.0 13.0 0.00 0.14 0.00 87 1002.6
20191019015705 53 190 6.0 12.0 0.00 0.14 0.00 87 1002.9
20191019015205 53 207 7.0 12.0 0.00 0.14 0.00 87 1002.9
20191019015003 53 198 7.0 12.0 0.00 0.14 0.00 87 1002.6
20191019014706 53 200 7.0 12.0 0.00 0.14 0.00 87 1003.0
20191019014206 53 207 6.0 13.0 0.00 0.14 0.00 87 1003.0
20191019014003 53 207 6.0 13.0 0.00 0.14 0.00 87 1002.6
20191019013705 53 218 6.0 12.0 0.00 0.14 0.00 87 1003.0
20191019013206 53 202 7.0 13.0 0.00 0.14 0.00 87 1003.0
20191019013003 53 205 6.0 12.0 0.00 0.14 0.00 87 1002.7
20191019012705 53 206 7.0 13.0 0.00 0.14 0.00 87 1003.0
20191019012205 53 207 6.0 12.0 0.00 0.14 0.00 86 1002.9
20191019012003 53 214 6.0 11.0 0.00 0.14 0.00 86 1002.7
20191019011706 53 220 6.0 12.0 0.00 0.14 0.00 86 1003.0
20191019011206 53 212 6.0 12.0 0.00 0.14 0.00 86 1003.0
20191019011003 53 207 5.0 11.0 0.00 0.14 0.00 86 1002.7
20191019010705 53 213 6.0 13.0 0.00 0.14 0.00 86 1003.0
20191019010205 53 214 6.0 15.0 0.00 0.14 0.00 86 1003.1
20191019010003 53 209 8.0 15.0 0.00 0.14 0.00 86 1002.7
20191019005706 53 218 6.0 12.0 0.00 0.14 0.00 86 1003.1
20191019005205 53 206 6.0 9.0 0.00 0.14 0.00 86 1003.1
20191019005003 53 213 6.0 9.0 0.00 0.14 0.00 86 1002.8
20191019004705 53 225 6.0 15.0 0.00 0.14 0.00 86 1003.2
20191019004206 53 192 6.0 18.0 0.00 0.14 0.00 86 1003.2
20191019004003 53 208 7.0 14.0 0.00 0.14 0.00 86 1003.0
20191019003704 53 204 7.0 12.0 0.00 0.14 0.00 86 1003.3
20191019003205 53 208 5.0 12.0 0.00 0.14 0.00 86 1003.3
20191019003004 53 210 6.0 10.0 0.00 0.14 0.00 86 1003.1
20191019002707 53 202 5.0 12.0 0.00 0.14 0.00 86 1003.4
20191019002206 53 186 6.0 12.0 0.00 0.14 0.00 86 1003.4
20191019002003 53 205 6.0 11.0 0.00 0.14 0.00 86 1003.1
20191019001705 53 212 6.0 10.0 0.00 0.14 0.00 86 1003.4
20191019001206 53 206 5.0 12.0 0.00 0.14 0.00 85 1003.4
20191019001003 53 207 6.0 12.0 0.00 0.14 0.00 85 1003.1
20191019000705 53 191 6.0 10.0 0.00 0.14 0.00 86 1003.4
20191019000205 53 210 6.0 13.0 0.00 0.14 0.00 85 1003.4
20191019000003 53 214 6.0 13.0 0.00 0.14 0.00 85 1003.2
20191018235706 53 207 6.0 12.0 0.00 0.14 0.00 85 1003.5
20191018235206 53 221 7.0 13.0 0.00 0.14 0.00 85 1003.6
20191018235003 53 220 6.0 11.0 0.00 0.14 0.00 86 1003.3
20191018234704 53 203 7.0 13.0 0.00 0.14 0.00 86 1003.6
20191018234206 53 198 7.0 13.0 0.00 0.14 0.00 86 1003.6
20191018234004 53 201 6.0 11.0 0.00 0.14 0.00 85 1003.3
20191018233706 53 202 5.0 10.0 0.00 0.14 0.00 85 1003.5
20191018233205 53 201 5.0 12.0 0.00 0.14 0.00 85 1003.6
20191018233003 53 202 6.0 11.0 0.00 0.14 0.00 85 1003.3
20191018232705 53 207 6.0 10.0 0.00 0.14 0.00 85 1003.6
20191018232206 53 197 6.0 12.0 0.00 0.14 0.00 85 1003.6
20191018232003 53 217 6.0 11.0 0.00 0.14 0.00 85 1003.3
20191018231705 53 205 5.0 9.0 0.00 0.14 0.00 85 1003.7
20191018231205 53 189 5.0 10.0 0.00 0.14 0.00 85 1003.8
20191018231003 53 206 6.0 10.0 0.00 0.14 0.00 85 1003.5
20191018230705 53 194 6.0 14.0 0.00 0.14 0.00 85 1003.8
20191018230205 53 207 7.0 12.0 0.00 0.14 0.00 85 1003.9
20191018230003 53 203 6.0 11.0 0.00 0.14 0.00 85 1003.6
20191018225704 53 194 6.0 12.0 0.00 0.14 0.00 84 1003.9
20191018225206 53 206 7.0 12.0 0.00 0.14 0.00 84 1003.9
20191018225003 53 197 6.0 10.0 0.00 0.14 0.00 84 1003.6
20191018224705 53 197 8.0 14.0 0.00 0.14 0.00 84 1003.9
20191018224205 53 210 7.0 13.0 0.00 0.14 0.00 84 1004.0
20191018224003 53 203 7.0 13.0 0.00 0.14 0.00 84 1003.7
20191018223706 53 201 7.0 13.0 0.00 0.14 0.00 84 1004.0
20191018223205 53 197 7.0 13.0 0.00 0.14 0.00 84 1004.0
20191018223003 53 198 7.0 11.0 0.00 0.14 0.00 84 1003.7
20191018222705 53 201 7.0 13.0 0.00 0.14 0.00 84 1004.1
20191018222206 53 197 7.0 15.0 0.00 0.14 0.00 84 1004.1
20191018222004 53 201 8.0 15.0 0.00 0.14 0.00 84 1003.8
20191018221705 53 210 6.0 13.0 0.00 0.14 0.00 84 1004.0
20191018221004 53 207 7.0 11.0 0.00 0.14 0.00 84 1003.8
20191018220720 53 206 9.0 13.0 0.00 0.14 0.00 84 1004.1
20191018220225 53 221 7.0 16.0 0.00 0.14 0.00 84 1004.1
20191018220005 53 207 7.0 16.0 0.00 0.14 0.00 84 1003.8
20191018215705 53 195 7.0 12.0 0.00 0.14 0.14 84 1004.1
20191018215205 53 222 9.0 15.0 0.00 0.14 0.14 84 1004.2
20191018215003 53 215 7.0 14.0 0.00 0.14 0.14 84 1003.9
20191018214706 53 210 9.0 16.0 0.00 0.14 0.14 84 1004.2
20191018214206 53 223 9.0 14.0 0.00 0.14 0.14 84 1004.2
20191018214004 53 218 8.0 14.0 0.00 0.14 0.14 84 1003.9
20191018213705 53 209 7.0 14.0 0.00 0.14 0.14 84 1004.2
20191018213206 53 211 7.0 12.0 0.00 0.14 0.14 85 1004.3
20191018213003 53 215 7.0 12.0 0.00 0.14 0.14 85 1004.0
20191018212706 53 206 7.0 12.0 0.00 0.14 0.14 85 1004.3
20191018212205 53 219 7.0 15.0 0.00 0.14 0.14 86 1004.3
20191018212003 53 204 7.0 13.0 0.00 0.14 0.14 86 1004.1
20191018211705 53 202 9.0 18.0 0.00 0.14 0.14 87 1004.4
20191018211207 53 209 9.0 15.0 0.00 0.14 0.14 87 1004.4
20191018211003 53 209 7.0 12.0 0.00 0.14 0.14 88 1004.1
20191018210704 52 208 9.0 14.0 0.00 0.14 0.14 88 1004.4
20191018210206 52 215 7.0 13.0 0.00 0.14 0.14 89 1004.5
20191018210003 52 202 8.0 13.0 0.00 0.14 0.14 89 1004.1
20191018205705 52 209 9.0 18.0 0.00 0.14 0.14 90 1004.4
20191018205205 52 206 9.0 18.0 0.00 0.14 0.14 91 1004.4
20191018205003 52 200 8.0 18.0 0.00 0.14 0.14 91 1004.1
20191018204705 52 204 7.0 13.0 0.00 0.14 0.14 91 1004.5
20191018204205 51 201 8.0 13.0 0.00 0.14 0.14 92 1004.5
20191018204003 51 206 7.0 13.0 0.00 0.14 0.14 92 1004.3
20191018203705 51 204 7.0 14.0 0.00 0.14 0.14 93 1004.6
20191018203204 51 203 7.0 14.0 0.00 0.14 0.14 93 1004.6
20191018203003 51 202 7.0 12.0 0.00 0.14 0.14 93 1004.2
20191018202704 50 206 8.0 18.0 0.00 0.14 0.14 93 1004.6
20191018202205 50 204 6.0 10.0 0.00 0.14 0.14 93 1004.7
20191018202003 50 193 6.0 10.0 0.00 0.14 0.14 93 1004.4
20191018201704 50 188 7.0 10.0 0.00 0.14 0.14 93 1004.7
20191018201204 49 186 6.0 9.0 0.00 0.14 0.14 93 1004.7
20191018201003 49 196 6.0 9.0 0.00 0.14 0.14 93 1004.5
20191018200705 49 186 5.0 10.0 0.00 0.14 0.14 93 1004.8
20191018200205 49 187 7.0 12.0 0.00 0.14 0.14 93 1004.8
20191018200003 49 189 6.0 9.0 0.00 0.14 0.14 93 1004.5
20191018195706 49 188 6.0 12.0 0.00 0.14 0.14 93 1004.9
20191018195205 49 181 6.0 9.0 0.00 0.14 0.14 92 1004.9
20191018195002 49 187 6.0 9.0 0.00 0.14 0.14 92 1004.6
20191018194704 49 177 5.0 7.0 0.00 0.14 0.14 92 1004.9
20191018194205 49 200 3.0 5.0 0.00 0.14 0.14 92 1005.0
20191018194003 49 266 4.0 5.0 0.00 0.14 0.14 92 1004.6
20191018193704 49 266 3.0 5.0 0.00 0.14 0.14 92 1005.1
20191018193205 49 267 2.0 3.0 0.00 0.14 0.14 92 1005.2
20191018193003 49 267 1.0 2.0 0.00 0.14 0.14 92 1005.0
20191018192705 49 267 0.0 1.0 0.00 0.14 0.14 92 1005.3
20191018192204 49 267 1.0 5.0 0.01 0.14 0.14 92 1005.4
20191018192003 49 267 2.0 5.0 0.01 0.14 0.14 91 1005.1
20191018191705 49 240 1.0 5.0 0.02 0.14 0.14 91 1005.3
20191018191205 49 201 2.0 5.0 0.02 0.14 0.14 91 1005.3
20191018191003 49 198 2.0 5.0 0.02 0.14 0.14 91 1005.0
20191018190704 49 188 2.0 6.0 0.02 0.14 0.14 91 1005.3
20191018190204 49 192 4.0 6.0 0.02 0.14 0.14 91 1005.4
20191018190004 49 194 4.0 6.0 0.02 0.14 0.14 91 1005.1
20191018185704 50 205 2.0 6.0 0.02 0.14 0.14 90 1005.5
20191018185205 50 223 4.0 6.0 0.02 0.14 0.14 90 1005.4
20191018185003 50 228 3.0 6.0 0.02 0.14 0.14 90 1005.1
20191018184704 50 226 5.0 6.0 0.02 0.14 0.14 90 1005.4
20191018184205 50 241 4.0 10.0 0.02 0.14 0.14 89 1005.5
20191018184003 50 241 6.0 10.0 0.02 0.14 0.14 90 1005.3
20191018183704 50 257 7.0 12.0 0.02 0.14 0.14 89 1005.7
20191018183204 50 264 9.0 14.0 0.02 0.14 0.14 88 1005.8
20191018183002 51 252 8.0 14.0 0.02 0.14 0.14 88 1005.6
20191018182704 51 247 10.0 20.0 0.02 0.14 0.14 87 1006.0
20191018182205 52 263 10.0 23.0 0.02 0.13 0.13 85 1006.0
20191018182003 52 270 14.0 23.0 0.02 0.13 0.13 84 1005.7
20191018181704 54 278 17.0 28.0 0.00 0.12 0.12 86 1006.0
20191018181204 54 296 9.0 12.0 0.00 0.12 0.12 86 1005.8
20191018181003 54 271 6.0 9.0 0.00 0.12 0.12 86 1005.4
20191018180705 54 248 5.0 8.0 0.00 0.12 0.12 86 1005.4
20191018180205 54 218 5.0 9.0 0.00 0.12 0.12 87 1005.3
20191018180003 54 225 5.0 9.0 0.00 0.12 0.12 87 1005.0
20191018175704 54 220 6.0 12.0 0.00 0.12 0.12 87 1005.4
20191018175204 54 223 7.0 12.0 0.00 0.12 0.12 87 1005.3
20191018175003 54 227 7.0 12.0 0.00 0.12 0.12 87 1004.9
20191018174705 54 225 8.0 15.0 0.00 0.12 0.12 87 1005.2
20191018174204 54 222 9.0 14.0 0.00 0.12 0.12 87 1005.1
20191018174003 54 222 8.0 13.0 0.00 0.12 0.12 87 1004.7
20191018173704 54 209 7.0 15.0 0.00 0.12 0.12 87 1004.9
20191018173204 54 205 7.0 12.0 0.00 0.12 0.12 87 1004.9
20191018173003 54 209 7.0 12.0 0.00 0.12 0.12 87 1004.6
20191018172705 54 219 7.0 12.0 0.00 0.12 0.12 87 1005.0
20191018172204 54 206 7.0 12.0 0.00 0.12 0.12 87 1004.9
20191018172003 54 217 7.0 12.0 0.00 0.12 0.12 87 1004.6
20191018171705 54 225 5.0 13.0 0.00 0.12 0.12 88 1004.9
20191018171205 54 204 7.0 13.0 0.00 0.12 0.12 88 1004.9
20191018171004 54 215 9.0 13.0 0.00 0.12 0.12 88 1004.5
20191018170704 54 215 8.0 18.0 0.00 0.12 0.12 88 1004.9
20191018170204 54 221 9.0 20.0 0.00 0.12 0.12 89 1004.8
20191018170003 54 228 11.0 16.0 0.00 0.12 0.12 89 1004.5
20191018165705 54 224 9.0 14.0 0.01 0.12 0.12 90 1004.7
20191018165205 54 212 11.0 20.0 0.01 0.12 0.12 90 1004.5
20191018165003 53 213 10.0 19.0 0.01 0.12 0.12 91 1004.3
20191018164704 53 216 9.0 18.0 0.01 0.12 0.12 91 1004.5
20191018164205 53 217 9.0 20.0 0.01 0.12 0.12 91 1004.6
20191018164003 53 212 9.0 18.0 0.01 0.12 0.12 91 1004.3
20191018163704 53 201 8.0 14.0 0.01 0.12 0.12 92 1004.7
20191018163205 53 208 6.0 12.0 0.01 0.12 0.12 92 1004.7
20191018163003 53 208 8.0 12.0 0.01 0.12 0.12 92 1004.4
20191018162705 53 202 7.0 14.0 0.01 0.12 0.12 92 1004.6
20191018162205 53 191 9.0 22.0 0.01 0.12 0.12 92 1004.5
20191018162003 53 197 11.0 22.0 0.01 0.12 0.12 92 1004.2
20191018161704 53 194 9.0 15.0 0.01 0.12 0.12 92 1004.7
20191018161205 53 194 9.0 14.0 0.02 0.12 0.12 92 1004.7
20191018161003 53 195 8.0 13.0 0.02 0.12 0.12 92 1004.4
20191018160704 53 196 8.0 16.0 0.04 0.12 0.12 92 1004.8
20191018160205 53 186 7.0 18.0 0.06 0.12 0.12 92 1004.8
20191018160003 53 194 9.0 18.0 0.06 0.12 0.12 92 1004.5
20191018155704 53 199 7.0 13.0 0.06 0.11 0.11 92 1004.9
20191018155205 52 200 8.0 14.0 0.07 0.11 0.11 92 1004.8
20191018155002 52 196 8.0 14.0 0.08 0.11 0.11 92 1004.6
20191018154705 52 193 7.0 15.0 0.09 0.11 0.11 92 1004.9
20191018154204 52 207 7.0 13.0 0.09 0.11 0.11 92 1004.9
20191018154004 52 192 6.0 11.0 0.09 0.11 0.11 92 1004.4
20191018153705 52 193 6.0 12.0 0.09 0.11 0.11 92 1004.7
20191018153204 52 184 6.0 10.0 0.10 0.11 0.11 91 1004.7
20191018153003 52 185 5.0 10.0 0.10 0.11 0.11 91 1004.3
20191018152704 52 190 5.0 9.0 0.10 0.11 0.11 91 1004.7
20191018152204 52 217 5.0 8.0 0.10 0.11 0.11 91 1004.9
20191018152004 52 220 5.0 8.0 0.10 0.11 0.11 91 1004.6
20191018151705 52 213 6.0 15.0 0.10 0.11 0.11 91 1005.0
20191018151206 52 226 10.0 16.0 0.09 0.10 0.10 90 1005.0
20191018151003 52 225 10.0 16.0 0.09 0.09 0.09 90 1004.7
20191018150706 52 225 10.0 18.0 0.07 0.08 0.08 90 1005.0
20191018150206 52 217 13.0 21.0 0.06 0.06 0.06 89 1004.9
20191018150004 52 219 11.0 21.0 0.05 0.06 0.06 89 1004.6
20191018145706 52 212 9.0 21.0 0.04 0.05 0.05 89 1004.8
20191018145204 52 225 10.0 21.0 0.03 0.04 0.04 88 1005.0
20191018145004 52 227 13.0 21.0 0.02 0.03 0.03 88 1004.8
20191018144704 53 233 9.0 18.0 0.02 0.02 0.02 87 1005.1
20191018144205 53 230 9.0 20.0 0.02 0.02 0.02 86 1005.1
20191018144003 53 232 11.0 19.0 0.02 0.02 0.02 86 1004.8
20191018143705 53 238 11.0 22.0 0.01 0.02 0.02 85 1005.0
20191018143204 54 224 10.0 23.0 0.00 0.01 0.01 83 1004.9
20191018143004 54 229 10.0 21.0 0.00 0.01 0.01 82 1004.6
20191018142706 54 236 14.0 24.0 0.00 0.01 0.01 81 1004.9
20191018142207 54 230 13.0 26.0 0.00 0.01 0.01 81 1004.5
20191018142003 54 232 12.0 21.0 0.00 0.01 0.01 81 1004.3
20191018141704 54 233 12.0 21.0 0.00 0.01 0.01 81 1004.4
20191018141208 55 226 16.0 25.0 0.00 0.01 0.01 81 1004.4
20191018141003 54 226 13.0 23.0 0.00 0.01 0.01 81 1004.1
20191018135205 55 231 13.0 22.0 0.00 0.01 0.01 80 1004.0
20191018135003 54 227 14.0 22.0 0.00 0.01 0.01 80 1003.7
20191018134705 54 229 13.0 20.0 0.00 0.01 0.01 80 1003.9
20191018134205 54 226 11.0 24.0 0.00 0.01 0.01 81 1003.8
20191018134004 54 229 15.0 24.0 0.00 0.01 0.01 81 1003.5
20191018133707 54 225 15.0 24.0 0.00 0.01 0.01 81 1003.8
20191018133206 54 217 14.0 25.0 0.00 0.01 0.01 81 1003.7
20191018133003 54 228 16.0 25.0 0.00 0.01 0.01 81 1003.4
20191018132704 55 219 14.0 26.0 0.00 0.01 0.01 81 1003.7
20191018132205 55 227 13.0 24.0 0.00 0.01 0.01 82 1003.7
20191018132003 55 229 12.0 21.0 0.00 0.01 0.01 82 1003.4
20191018131705 55 228 12.0 26.0 0.00 0.01 0.01 82 1003.8
20191018131205 55 222 12.0 25.0 0.00 0.01 0.01 81 1003.8
20191018131004 55 232 15.0 27.0 0.00 0.01 0.01 81 1003.5
20191018130705 55 233 11.0 26.0 0.00 0.01 0.01 82 1003.8
20191018130207 55 240 14.0 26.0 0.00 0.01 0.01 81 1003.7
20191018130004 55 242 16.0 29.0 0.00 0.01 0.01 81 1003.4
20191018125705 55 228 12.0 25.0 0.00 0.01 0.01 81 1003.7
20191018125205 56 222 11.0 24.0 0.00 0.01 0.01 81 1003.7
20191018125004 56 231 14.0 24.0 0.00 0.01 0.01 81 1003.4
20191018124706 56 230 13.0 22.0 0.00 0.01 0.01 81 1003.7
20191018124204 56 234 13.0 28.0 0.00 0.01 0.01 81 1003.8
20191018124003 56 225 16.0 28.0 0.00 0.01 0.01 80 1003.5
20191018123705 56 237 19.0 31.0 0.00 0.01 0.01 80 1003.7
20191018123206 56 234 16.0 26.0 0.00 0.01 0.01 81 1003.7
20191018123003 56 239 16.0 24.0 0.00 0.01 0.01 81 1003.4
20191018122706 56 209 17.0 30.0 0.00 0.01 0.01 81 1003.6
20191018122205 56 226 15.0 26.0 0.00 0.01 0.01 81 1003.6
20191018122004 56 233 15.0 26.0 0.00 0.01 0.01 81 1003.3
20191018121705 56 239 14.0 24.0 0.00 0.01 0.01 82 1003.5